CW8916 Weather Reports


time (UTC)temp
C
wind
direction
speed
KPH
gust
KPH
rain 1hr
cm
rain 24hr
cm
rain mn
cm
humidity
%
barometer
mb
20260502161628 13 311 4.8 9.7 0.00 0.00 0.00 43 1021.7
20260502160629 12 24 3.2 8.0 0.00 0.00 0.00 41 1021.6
20260502151616 10 290 0.0 6.4 0.00 0.00 0.00 52 1021.7
20260502150635 10 306 4.8 6.4 0.00 0.00 0.00 50 1021.7
20260502130621 5 142 1.6 3.2 0.00 0.00 0.00 58 1021.6
20260502123632 5 217 4.8 6.4 0.00 0.00 0.00 58 1021.4
20260502122630 5 200 6.4 8.0 0.00 0.00 0.00 57 1021.4
20260502121653 5 189 4.8 6.4 0.00 0.00 0.00 56 1021.5
20260502120633 5 186 3.2 8.0 0.00 0.00 0.00 58 1021.4
20260502115624 5 188 3.2 4.8 0.00 0.00 0.00 60 1021.3
20260502114645 4 209 3.2 4.8 0.00 0.00 0.00 63 1021.3
20260502113621 4 271 1.6 6.4 0.00 0.00 0.00 62 1021.4
20260502112621 6 210 6.4 9.7 0.00 0.00 0.00 55 1021.5
20260502111619 6 175 6.4 11.3 0.00 0.00 0.00 56 1021.4
20260502110620 6 171 8.0 12.9 0.00 0.00 0.00 56 1021.5
20260502105615 5 177 3.2 8.0 0.00 0.00 0.00 57 1021.4
20260502104615 5 204 4.8 8.0 0.00 0.00 0.00 58 1021.6
20260502103655 6 184 4.8 8.0 0.00 0.00 0.00 56 1021.5
20260502102633 6 189 4.8 9.7 0.00 0.00 0.00 55 1021.6
20260502101636 6 194 8.0 12.9 0.00 0.00 0.00 56 1021.5
20260502100616 6 200 4.8 9.7 0.00 0.00 0.00 56 1021.4
20260502090632 6 176 3.2 6.4 0.00 0.00 0.00 56 1021.3
20260502070640 8 163 6.4 8.0 0.00 0.00 0.00 48 1021.2
20260502065631 8 202 4.8 8.0 0.00 0.00 0.00 50 1021.0
20260502064630 8 190 8.0 11.3 0.00 0.00 0.00 49 1021.0
20260502063629 9 174 4.8 9.7 0.00 0.00 0.00 47 1020.9
20260502062628 9 140 4.8 8.0 0.00 0.00 0.00 47 1020.9
20260502061626 10 192 0.0 4.8 0.00 0.00 0.00 45 1020.7
20260502060634 10 138 1.6 6.4 0.00 0.00 0.00 44 1020.6
20260502055646 10 157 4.8 8.0 0.00 0.00 0.00 45 1020.5
20260502054624 10 190 8.0 12.9 0.00 0.00 0.00 45 1020.5
20260502053628 10 159 8.0 11.3 0.00 0.00 0.00 45 1020.4
20260502052631 10 185 4.8 9.7 0.00 0.00 0.00 44 1020.5
20260502051631 10 174 4.8 9.7 0.00 0.00 0.00 44 1020.4
20260502050631 10 182 8.0 11.3 0.00 0.00 0.00 44 1020.4
20260502045622 10 186 6.4 12.9 0.00 0.00 0.00 44 1020.4
20260502044623 10 191 6.4 11.3 0.00 0.00 0.00 44 1020.4
20260502043626 10 173 8.0 14.5 0.00 0.00 0.00 45 1020.4
20260502042624 10 154 11.3 16.1 0.00 0.00 0.00 43 1020.3
20260502041644 11 150 6.4 11.3 0.00 0.00 0.00 43 1020.4
20260502040621 11 165 6.4 9.7 0.00 0.00 0.00 41 1020.4
20260502035633 12 159 4.8 8.0 0.00 0.00 0.00 39 1020.3
20260502034633 12 161 6.4 11.3 0.00 0.00 0.00 38 1020.2
20260502033631 11 161 8.0 12.9 0.00 0.00 0.00 39 1019.9
20260502032651 11 170 8.0 12.9 0.00 0.00 0.00 42 1019.9
20260502031634 12 196 8.0 12.9 0.00 0.00 0.00 41 1019.7
20260502030633 12 170 8.0 9.7 0.00 0.00 0.00 37 1019.5
20260502025626 12 180 8.0 9.7 0.00 0.00 0.00 38 1019.3
20260502024626 13 167 8.0 9.7 0.00 0.00 0.00 37 1019.2
20260502023627 13 168 6.4 9.7 0.00 0.00 0.00 38 1019.2
20260502022627 13 162 6.4 8.0 0.00 0.00 0.00 39 1019.3
20260502021626 13 173 8.0 8.0 0.00 0.00 0.00 38 1019.2
20260502020647 15 153 3.2 6.4 0.00 0.00 0.00 37 1019.2
20260502015621 15 185 3.2 4.8 0.00 0.00 0.00 35 1019.1
20260502014622 15 211 3.2 4.8 0.00 0.00 0.00 32 1019.1
20260502013624 16 250 1.6 4.8 0.00 0.00 0.00 33 1019.1
20260502012645 16 287 3.2 6.4 0.00 0.00 0.00 30 1019.1
20260502011625 17 291 4.8 9.7 0.00 0.00 0.00 30 1019.1
20260502010626 17 296 9.7 12.9 0.00 0.00 0.00 30 1019.1
20260502005638 18 331 8.0 16.1 0.00 0.00 0.00 26 1019.2
20260502004633 18 342 11.3 17.7 0.00 0.00 0.00 26 1019.1
20260502003634 18 342 8.0 16.1 0.00 0.00 0.00 25 1019.1
20260502002633 18 360 9.7 16.1 0.00 0.00 0.00 25 1019.2
20260502001634 18 13 8.0 16.1 0.00 0.00 0.00 26 1019.2
20260502000639 18 319 8.0 14.5 0.00 0.00 0.00 26 1019.1
20260501235628 18 15 8.0 16.1 0.00 0.00 0.00 25 1019.2
20260501234626 18 11 12.9 20.9 0.00 0.00 0.00 26 1019.3
20260501233625 18 346 11.3 19.3 0.00 0.00 0.00 26 1019.2
20260501232628 18 5 9.7 17.7 0.00 0.00 0.00 24 1019.3
20260501231630 18 331 9.7 17.7 0.00 0.00 0.00 25 1019.3
20260501230629 18 19 6.4 19.3 0.00 0.00 0.00 24 1019.3
20260501225618 17 56 9.7 19.3 0.00 0.00 0.00 24 1019.5
20260501224617 17 333 9.7 17.7 0.00 0.00 0.00 25 1019.6
20260501223617 17 72 8.0 17.7 0.00 0.00 0.00 24 1019.7
20260501222621 17 335 11.3 20.9 0.00 0.00 0.00 26 1019.8
20260501221621 17 5 9.7 17.7 0.00 0.00 0.00 26 1019.9
20260501220620 17 30 9.7 20.9 0.00 0.00 0.00 27 1019.9
20260501215630 17 5 6.4 20.9 0.00 0.00 0.00 27 1020.1
20260501214629 17 27 12.9 20.9 0.00 0.00 0.00 27 1020.1
20260501213630 17 5 12.9 20.9 0.00 0.00 0.00 28 1020.1
20260501212628 17 346 11.3 19.3 0.00 0.00 0.00 27 1020.4
20260501211627 17 5 12.9 20.9 0.00 0.00 0.00 29 1020.4
20260501210615 16 36 11.3 19.3 0.00 0.00 0.00 28 1020.4
20260501205630 16 339 11.3 17.7 0.00 0.00 0.00 26 1020.5
20260501204630 16 35 11.3 19.3 0.00 0.00 0.00 27 1020.6
20260501203630 16 71 14.5 19.3 0.00 0.00 0.00 30 1020.7
20260501202629 16 51 4.8 14.5 0.00 0.00 0.00 30 1020.7
20260501201629 16 301 4.8 14.5 0.00 0.00 0.00 29 1020.7
20260501200633 16 53 1.6 27.4 0.00 0.00 0.00 28 1020.7
20260501195644 16 13 6.4 19.3 0.00 0.00 0.00 27 1021.0
20260501194623 16 37 1.6 14.5 0.00 0.00 0.00 28 1020.9
20260501193623 16 277 11.3 16.1 0.00 0.00 0.00 28 1021.0
20260501192623 15 38 8.0 19.3 0.00 0.00 0.00 31 1021.0
20260501191622 15 30 3.2 14.5 0.00 0.00 0.00 33 1021.2
20260501190621 15 37 3.2 9.7 0.00 0.00 0.00 31 1021.2
20260501185619 15 11 6.4 19.3 0.00 0.00 0.00 30 1021.3
20260501184617 15 277 4.8 11.3 0.00 0.00 0.00 30 1021.3
20260501183621 15 250 6.4 11.3 0.00 0.00 0.00 30 1021.4
20260501182642 14 237 3.2 12.9 0.00 0.00 0.00 30 1021.5
20260501181619 14 242 6.4 19.3 0.00 0.00 0.00 29 1021.6
20260501180632 14 134 4.8 12.9 0.00 0.00 0.00 29 1021.5
20260501175622 14 42 6.4 11.3 0.00 0.00 0.00 29 1021.7
20260501174642 14 30 3.2 8.0 0.00 0.00 0.00 32 1021.7
20260501173617 13 50 4.8 11.3 0.00 0.00 0.00 29 1022.0
20260501172622 13 194 4.8 12.9 0.00 0.00 0.00 30 1022.0
20260501171619 13 207 4.8 8.0 0.00 0.00 0.00 30 1022.0
20260501170619 12 201 4.8 8.0 0.00 0.00 0.00 29 1022.2
20260501165629 12 273 3.2 8.0 0.00 0.00 0.00 31 1022.2
20260501164628 12 17 3.2 12.9 0.00 0.00 0.00 37 1022.0
20260501163630 12 245 0.0 8.0 0.00 0.00 0.00 36 1022.2
20260501162629 11 308 3.2 8.0 0.00 0.00 0.00 38 1022.2